This demonstration page uses our WeatherBlox Daily Observations layout. Learn more.

Left ArrowRight Arrow

41.55636, -103.73856

Hourly Observations for December 21, 2020

Temp ( °F °C ) Dew Point ( °F °C ) Humidity (%) Winds ( mph kmh ) Pressure ( in mb ) Visibility ( mi km ) Precip ( " mm )
12:57 am 00:57 Clear 43 6.3 28 -2.2 55 55 NW 17 28 29.94 1014 10 16 0.00 0.00
2:56 am 02:56 Clear 42 5.6 28 -2 58 58 NW 14 22 30.00 1016 10 16 0.00 0.00
3:56 am 03:56 Clear 40 4.2 28 -2.1 64 64 NW 6 9 30.02 1017 10 16 0.00 0.00
4:56 am 04:56 Clear 38 3.4 28 -2.2 67 67 WSW 5 7 30.04 1017 10 16 0.00 0.00
5:56 am 05:56 Clear 38 3.4 27 -2.8 64 64 W 8 13 30.06 1018 10 16 0.00 0.00
6:57 am 06:57 Clear 38 3.6 29 -1.6 69 69 W 9 15 30.08 1019 10 16 0.00 0.00
7:56 am 07:56 Sunny 39 4.1 29 -1.4 68 68 NW 8 13 30.10 1019 10 16 0.00 0.00
8:56 am 08:56 Sunny 42 5.5 31 -0.4 66 66 SW 5 7 30.11 1020 10 16 0.00 0.00
9:56 am 09:56 Sunny 48 9.1 30 -1.1 49 49 WNW 5 7 30.10 1019 10 16 0.00 0.00
10:56 am 10:56 Sunny 53 11.9 29 -1.4 40 40 NW 17 28 30.06 1018 10 16 0.00 0.00
11:56 am 11:56 Mostly Sunny 57 14.1 28 -2.4 32 32 WNW 23 37 30.02 1017 10 16 0.00 0.00
12:56 pm 12:56 Mostly Cloudy 59 15.1 27 -2.9 29 29 W 16 26 30.00 1016 10 16 0.00 0.00
1:56 pm 13:56 Sunny 59 14.8 28 -2.5 30 30 WNW 20 31 30.00 1016 10 16 0.00 0.00
2:56 pm 14:56 Sunny 58 14.5 28 -2.4 31 31 WNW 18 30 30.00 1016 10 16 0.00 0.00
3:56 pm 15:56 Sunny 55 12.7 28 -2.4 35 35 WNW 12 19 30.00 1016 10 16 0.00 0.00
4:56 pm 16:56 Clear 47 8.1 28 -2.1 49 49 WNW 9 15 30.04 1017 10 16 0.00 0.00
5:56 pm 17:56 Clear 43 6.2 28 -2.5 54 54 SW 6 9 30.06 1018 10 16 0.00 0.00
6:56 pm 18:56 Clear 41 4.8 28 -2.5 60 60 SSW 9 15 30.08 1019 10 16 0.00 0.00
7:56 pm 19:56 Clear 37 2.8 27 -3 66 66 SSW 9 15 30.05 1018 10 16 0.00 0.00
8:56 pm 20:56 Clear 40 4.5 27 -2.7 60 60 SSW 8 13 30.04 1017 10 16 0.00 0.00
9:56 pm 21:56 Clear 40 4.6 29 -1.9 63 63 SSW 9 15 29.99 1016 10 16 0.00 0.00
10:56 pm 22:56 Clear 40 4.3 29 -1.9 64 64 SSW 13 20 29.96 1015 10 16 0.00 0.00
11:56 pm 23:56 Clear 39 4.1 26 -3.2 59 59 SSW 9 15 29.93 1014 10 16 0.00 0.00

Powered by AerisWeather